Total_Precipitation_Accumulation
0.00 0.00 0.01 0.07 0.15 0.22 0.27 0.45 0.71 1.20 1.68 1.82 2.62 2.40 2.26 2.08 1.81 1.56 1.98 2.31 1.52 1.26 0.68 0.41 0.31 0.28 0.13 0.22 0.09 0.02 0.07 0.15
0.00 0.00 0.01 0.05 0.28 0.36 0.22 0.07 0.13 1.01 1.29 1.25 1.34 0.97 1.57 2.80 2.85 2.34 1.98 2.04 1.87 1.65 1.42 1.23 0.72 0.56 0.37 0.30 0.15 0.12 0.14 0.12
0.00 0.00 0.00 0.00 0.04 0.11 0.17 0.16 0.08 0.11 0.26 0.67 1.09 0.51 0.66 0.93 1.66 1.71 1.48 1.42 1.61 1.71 1.52 1.53 1.43 0.82 0.79 0.58 0.37 0.21 0.20 0.16
0.00 0.00 0.00 0.00 0.01 0.03 0.04 0.06 0.15 0.13 0.06 0.10 0.37 0.46 0.60 0.65 0.82 0.94 1.26 1.01 1.03 1.59 1.38 1.10 0.97 0.66 0.78 0.59 0.32 0.19 0.11 0.07
0.00 0.00 0.00 0.00 0.00 0.02 0.03 0.03 0.07 0.11 0.13 0.11 0.16 0.20 0.26 0.40 0.34 0.58 0.85 0.91 0.49 0.56 0.98 0.62 0.47 0.39 0.52 0.48 0.22 0.10 0.06 0.07
0.00 0.00 0.00 0.00 0.00 0.01 0.01 0.03 0.04 0.07 0.09 0.14 0.13 0.11 0.10 0.18 0.16 0.26 0.40 0.45 0.38 0.28 0.31 0.46 0.36 0.39 0.39 0.43 0.20 0.07 0.02 0.03
0.00 0.00 0.01 0.01 0.00 0.01 0.01 0.03 0.03 0.09 0.12 0.11 0.10 0.08 0.07 0.08 0.12 0.15 0.16 0.22 0.43 0.43 0.33 0.33 0.42 0.37 0.35 0.34 0.20 0.07 0.04 0.02
0.01 0.01 0.01 0.01 0.01 0.01 0.01 0.02 0.04 0.05 0.09 0.09 0.08 0.09 0.08 0.07 0.08 0.14 0.10 0.18 0.38 0.49 0.47 0.40 0.47 0.43 0.54 0.31 0.15 0.07 0.03 0.04
0.01 0.01 0.03 0.04 0.01 0.01 0.02 0.03 0.04 0.07 0.08 0.12 0.13 0.13 0.12 0.11 0.07 0.11 0.14 0.15 0.33 0.45 0.58 0.69 0.62 0.45 0.59 0.36 0.12 0.05 0.04 0.06
0.00 0.01 0.02 0.07 0.03 0.01 0.01 0.02 0.05 0.05 0.09 0.16 0.18 0.17 0.23 0.16 0.09 0.10 0.16 0.26 0.43 0.46 0.44 0.68 0.57 0.35 0.31 0.34 0.12 0.06 0.03 0.06
0.00 0.00 0.01 0.05 0.08 0.02 0.02 0.02 0.03 0.04 0.09 0.26 0.41 0.56 0.28 0.22 0.16 0.11 0.20 0.36 0.48 0.49 0.44 0.54 0.62 0.38 0.19 0.26 0.10 0.05 0.04 0.03
0.00 0.01 0.05 0.14 0.15 0.19 0.19 0.04 0.02 0.02 0.09 0.60 0.61 1.13 0.98 0.37 0.25 0.16 0.24 0.28 0.44 0.50 0.50 0.50 0.61 0.44 0.27 0.28 0.16 0.04 0.05 0.04
0.00 0.02 0.06 0.07 0.06 0.07 0.08 0.02 0.04 0.04 0.04 0.30 0.65 0.85 1.62 0.94 0.49 0.20 0.16 0.18 0.29 0.38 0.54 0.49 0.61 0.59 0.52 0.46 0.33 0.15 0.06 0.04
0.00 0.01 0.03 0.02 0.02 0.06 0.08 0.11 0.13 0.11 0.06 0.10 0.30 0.51 0.94 1.27 0.72 0.48 0.27 0.24 0.20 0.36 0.43 0.43 0.51 0.44 0.39 0.34 0.39 0.36 0.22 0.05
0.00 0.01 0.02 0.02 0.02 0.04 0.07 0.11 0.10 0.15 0.08 0.08 0.14 0.31 0.67 0.91 0.89 0.70 0.45 0.38 0.26 0.19 0.29 0.23 0.31 0.33 0.15 0.23 0.20 0.19 0.11 0.05
0.00 0.01 0.02 0.02 0.03 0.03 0.03 0.02 0.01 0.02 0.02 0.05 0.13 0.13 0.38 0.68 0.70 0.65 0.50 0.36 0.42 0.28 0.28 0.29 0.23 0.26 0.16 0.17 0.06 0.05 0.05 0.12
0.00 0.05 0.04 0.01 0.04 0.02 0.04 0.03 0.05 0.08 0.06 0.03 0.10 0.24 0.17 0.48 0.63 0.70 0.53 0.41 0.35 0.32 0.33 0.33 0.22 0.19 0.09 0.13 0.13 0.09 0.13 0.14
0.00 0.03 0.04 0.05 0.04 0.05 0.04 0.03 0.06 0.06 0.04 0.04 0.05 0.18 0.42 0.50 0.64 0.57 0.61 0.43 0.34 0.35 0.33 0.33 0.27 0.22 0.19 0.08 0.08 0.11 0.11 0.11
0.13 0.13 0.05 0.03 0.03 0.05 0.06 0.08 0.05 0.06 0.04 0.02 0.03 0.05 0.16 0.34 0.51 0.53 0.55 0.51 0.36 0.39 0.42 0.43 0.35 0.26 0.25 0.15 0.07 0.06 0.08 0.11
0.22 0.32 0.25 0.18 0.16 0.15 0.13 0.07 0.03 0.03 0.03 0.03 0.04 0.02 0.02 0.11 0.31 0.45 0.42 0.59 0.59 0.46 0.49 0.43 0.52 0.40 0.31 0.27 0.14 0.10 0.09 0.06